Hagerstown, MD

8:25 AM EST on February 24, 2017 (GMT -0500)
Hagerstown Regional-Henson

Weather History for KHGR - December, 2013

Change the Weather History Date:

Sunday, December 29, 2013

  Actual Average Record
Temperature  
Mean Temperature 44 °F 31 °F  
Max Temperature 48 °F 39 °F 55 °F (1996)
Min Temperature 39 °F 24 °F 10 °F (2000)
Degree Days  
Heating Degree Days 21 34  
Month to date heating degree days 815 893  
Since 1 July heating degree days 1877 1898  
Cooling Degree Days 0 0  
Month to date cooling degree days 0 0  
Year to date cooling degree days 1133 969  
Moisture  
Dew Point 38 °F    
Average Humidity 69    
Maximum Humidity 100    
Minimum Humidity 38    
Precipitation  
Precipitation 0.88 in 0.07 in 0.88 in (2013)
Month to date precipitation 4.00 2.75  
Year to date precipitation 33.93 39.15  
Sea Level Pressure  
Sea Level Pressure 29.77 in    
Wind  
Wind Speed 8 mph (NNW)    
Max Wind Speed 14 mph    
Max Gust Speed 19 mph    
Visibility 6 miles    
Events Rain    
T = Trace of Precipitation, MM = Missing Value Source: NWS Daily Summary

Daily Weather History Graph

Daily Weather History Graph

Search for Another Location

Airport or City:

Trip Planner

Search our weather history database for the weather conditions in past years. The results will help you decide how hot, cold, wet, or windy it might be!

Date:

Astronomy

Dec. 29, 2013 Rise Set
Actual Time 7:31 AM EST 4:54 PM EST
Civil Twilight 7:01 AM EST 5:25 PM EST
Nautical Twilight 6:27 AM EST 5:59 PM EST
Astronomical Twilight 5:54 AM EST 6:31 PM EST
Moon 4:13 AM EST (12/29) 2:31 PM EST (12/29)
Length of Visible Light 10h 24m
Length of Day
9h 23m
Waning Crescent, 11% of the Moon is Illuminated
Dec 29
Waning Crescent
Jan 1
New
Jan 7
First Quarter
Jan 15
Full
Jan 24
Last Quarter

Hourly Weather History & Observations

Time (EST) Temp. Windchill Dew Point Humidity Pressure Visibility Wind Dir Wind Speed Gust Speed Precip Events Conditions
12:53 AM 44.1 °F 40.8 °F 24.1 °F 45% 30.11 in 10.0 mi South 5.8 mph - N/A   Clear
1:53 AM 45.0 °F 41.2 °F 23.0 °F 42% 30.07 in 10.0 mi SE 6.9 mph - N/A   Clear
2:53 AM 45.0 °F 42.6 °F 24.1 °F 44% 30.09 in 10.0 mi South 4.6 mph - N/A   Partly Cloudy
3:53 AM 46.0 °F 41.9 °F 23.0 °F 40% 30.06 in 10.0 mi SE 8.1 mph - N/A   Overcast
4:53 AM 46.0 °F 41.9 °F 24.1 °F 42% 30.05 in 10.0 mi SSW 8.1 mph - N/A   Overcast
5:53 AM 42.1 °F 38.4 °F 35.1 °F 76% 30.04 in 10.0 mi SSE 5.8 mph - 0.01 in Rain Light Rain
6:53 AM 41.0 °F 36.4 °F 37.0 °F 86% 30.01 in 10.0 mi ENE 6.9 mph - 0.03 in Rain Light Rain
7:53 AM 41.0 °F 35.8 °F 37.0 °F 86% 29.95 in 10.0 mi NE 8.1 mph - 0.09 in Rain Light Rain
8:53 AM 43.0 °F 39.5 °F 41.0 °F 93% 29.91 in 4.0 mi NE 5.8 mph - 0.10 in Rain Rain
9:22 AM 42.1 °F 37.1 °F 41.0 °F 96% 29.85 in 2.0 mi NNW 8.1 mph - 0.09 in Rain Rain
9:42 AM 41.0 °F 36.4 °F 39.9 °F 96% 29.84 in 1.8 mi NNW 6.9 mph - 0.16 in Rain Rain
9:45 AM 41.0 °F 36.4 °F 39.9 °F 96% 29.84 in 1.8 mi NNW 6.9 mph - 0.18 in Rain Rain
9:53 AM 41.0 °F 35.2 °F 39.9 °F 96% 29.89 in 1.8 mi NNW 9.2 mph - 0.20 in Rain Rain
10:27 AM 39.9 °F 33.4 °F 39.0 °F 97% 29.84 in 2.0 mi North 10.4 mph - 0.12 in Rain Rain
10:38 AM 39.9 °F 33.4 °F 39.0 °F 97% 29.82 in 1.5 mi North 10.4 mph - 0.16 in Rain Rain
10:53 AM 39.9 °F 32.9 °F 39.0 °F 97% 29.85 in 2.0 mi North 11.5 mph - 0.21 in Rain Rain
11:02 AM 39.9 °F 33.9 °F 39.0 °F 97% 29.78 in 1.8 mi North 9.2 mph - 0.03 in Rain Rain
11:12 AM 39.9 °F 33.9 °F 39.0 °F 97% 29.78 in 2.0 mi North 9.2 mph - 0.05 in Rain Rain
11:22 AM 39.0 °F 32.8 °F 39.0 °F 100% 29.76 in 1.8 mi North 9.2 mph - 0.08 in Rain Rain
11:31 AM 39.0 °F 32.3 °F 39.0 °F 100% 29.74 in 2.0 mi North 10.4 mph - 0.09 in Rain Light Rain
11:53 AM 41.0 °F 35.2 °F 39.9 °F 96% 29.75 in 1.8 mi NNE 9.2 mph - 0.12 in Rain Rain
12:19 PM 41.0 °F 34.3 °F 41.0 °F 100% 29.65 in 1.5 mi East 11.5 mph - 0.03 in Rain Light Rain
12:38 PM 42.1 °F 35.7 °F 41.0 °F 96% 29.62 in 1.5 mi East 11.5 mph - 0.05 in Rain Light Rain
12:46 PM 42.1 °F 37.7 °F 42.1 °F 100% 29.61 in 2.0 mi East 6.9 mph - 0.05 in Rain Light Rain
12:53 PM 42.1 °F 38.4 °F 42.1 °F 100% 29.65 in 2.5 mi NE 5.8 mph - 0.05 in Rain Light Rain
1:03 PM 42.1 °F 38.4 °F 42.1 °F 100% 29.59 in 3.0 mi North 5.8 mph - 0.00 in Rain Light Rain
1:22 PM 42.1 °F 37.1 °F 42.1 °F 100% 29.58 in 2.5 mi NNW 8.1 mph - 0.01 in Rain Light Rain
1:30 PM 41.0 °F 35.8 °F 41.0 °F 100% 29.59 in 1.0 mi NNW 8.1 mph - 0.01 in Rain Light Rain
1:39 PM 41.0 °F 34.7 °F 39.9 °F 96% 29.59 in 1.5 mi NW 10.4 mph - 0.01 in   Overcast
1:53 PM 41.0 °F 34.7 °F 39.9 °F 96% 29.61 in 1.8 mi NNW 10.4 mph - 0.01 in Rain Light Rain
2:11 PM 39.9 °F 32.9 °F 39.0 °F 97% 29.59 in 2.0 mi NW 11.5 mph - 0.01 in Rain Light Rain
2:30 PM 39.9 °F 33.9 °F 39.0 °F 97% 29.59 in 3.0 mi NNW 9.2 mph - 0.01 in Rain Light Rain
2:45 PM 39.9 °F 34.5 °F 39.0 °F 97% 29.59 in 4.0 mi NW 8.1 mph - 0.01 in Rain Light Rain
2:53 PM 39.9 °F 34.5 °F 39.0 °F 97% 29.64 in 2.0 mi NW 8.1 mph - 0.01 in Rain Light Rain
3:00 PM 39.9 °F 34.5 °F 39.0 °F 97% 29.60 in 4.0 mi NW 8.1 mph - 0.01 in Rain Light Rain
3:16 PM 39.9 °F 35.8 °F 39.9 °F 100% 29.59 in 2.0 mi NW 5.8 mph - 0.04 in Rain Light Rain
3:53 PM 41.0 °F 35.8 °F 39.9 °F 96% 29.61 in 3.0 mi NNW 8.1 mph - 0.05 in   Overcast
4:49 PM 42.8 °F 38.6 °F 41.0 °F 93% 29.62 in 5.0 mi WNW 6.9 mph - N/A   Overcast
4:53 PM 42.1 °F 37.7 °F 41.0 °F 96% 29.66 in 6.0 mi West 6.9 mph - N/A   Overcast
5:21 PM 42.1 °F 37.1 °F 41.0 °F 96% 29.64 in 10.0 mi WNW 8.1 mph - N/A   Overcast
5:53 PM 42.1 °F 37.1 °F 39.9 °F 92% 29.70 in 10.0 mi WNW 8.1 mph - N/A   Overcast
6:05 PM 42.1 °F 37.1 °F 39.9 °F 92% 29.67 in 10.0 mi NW 8.1 mph - N/A   Overcast
6:53 PM 42.1 °F 38.4 °F 39.0 °F 89% 29.75 in 10.0 mi North 5.8 mph - N/A   Mostly Cloudy
7:03 PM 43.0 °F - 39.0 °F 86% 29.72 in 10.0 mi North - - N/A   Scattered Clouds
7:53 PM 42.1 °F 37.7 °F 37.9 °F 85% 29.80 in 10.0 mi East 6.9 mph - N/A   Mostly Cloudy
8:13 PM 44.1 °F - 37.9 °F 79% 29.77 in 10.0 mi Calm Calm - N/A   Overcast
8:50 PM 41.0 °F 36.4 °F 35.6 °F 81% 29.76 in 10.0 mi NW 6.9 mph - N/A   Scattered Clouds
8:53 PM 39.9 °F 35.1 °F 36.0 °F 86% 29.80 in 10.0 mi NW 6.9 mph - N/A   Scattered Clouds
9:19 PM 41.0 °F 37.1 °F 37.0 °F 86% 29.78 in 10.0 mi South 5.8 mph - N/A   Mostly Cloudy
9:53 PM 43.0 °F 40.3 °F 37.0 °F 80% 29.83 in 10.0 mi SW 4.6 mph - N/A   Mostly Cloudy
10:02 PM 42.1 °F 39.2 °F 37.0 °F 82% 29.79 in 10.0 mi SW 4.6 mph - N/A   Scattered Clouds
10:53 PM 44.1 °F 39.5 °F 37.9 °F 79% 29.83 in 10.0 mi SW 8.1 mph - N/A   Overcast
11:53 PM 45.0 °F 40.1 °F 37.9 °F 76% 29.84 in 10.0 mi SW 9.2 mph - N/A   Overcast